Weather History for Raton, NM

Change the Weather History Date:

Monday, July 1, 2013

  Actual Average (KTAD) Record (KTAD)
Temperature  
Mean Temperature 63 °F 73 °F  
Max Temperature 73 °F 88 °F 103 °F (1973)
Min Temperature 53 °F 57 °F 48 °F (1951)
Degree Days  
Heating Degree Days 2 0  
Month to date heating degree days 0  
Since 1 June heating degree days 39  
Since 1 July heating degree days 0  
Cooling Degree Days 0 8  
Month to date cooling degree days 8  
Year to date cooling degree days 177  
Since 1 June cooling degree days 149  
Growing Degree Days 13 (Base 50)    
Moisture  
Dew Point 54 °F    
Average Humidity 77    
Maximum Humidity 100    
Minimum Humidity 48    
Precipitation  
Precipitation 0.00 in 0.06 in 1.01 in (1965)
Month to date precipitation 0.06  
Year to date precipitation 5.99  
Sea Level Pressure  
Sea Level Pressure 30.18 in    
Wind  
Wind Speed 4 mph (ESE)    
Max Wind Speed 25 mph    
Max Gust Speed 31 mph    
Visibility 10 miles    
Events Rain    
T = Trace of Precipitation, MM = Missing Value Source: NWS Daily Summary

Daily Weather History Graph

Daily Weather History Graph

Search for Another Location

Airport:

Trip Planner

Search our weather history database for the weather conditions in past years. The results will help you decide how hot, cold, wet, or windy it might be!

Date:

Astronomy

Jul. 01, 2013 Rise Set
Actual Time 5:42 AM MDT 8:20 PM MDT
Civil Twilight 5:12 AM MDT 8:51 PM MDT
Nautical Twilight 4:34 AM MDT 9:29 PM MDT
Astronomical Twilight 3:51 AM MDT 10:11 PM MDT
Moon 1:08 AM MDT (7/1) 2:43 PM MDT (7/1)
Length of Visible Light 15h 38m
Length of Day
14h 37m
Waning Crescent, 35% of the Moon is Illuminated
Jul 1
Waning Crescent
Jul 8
New
Jul 15
First Quarter
Jul 22
Full
Jul 29
Last Quarter

Hourly Weather History & Observations

Time (MDT) Temp. Dew Point Humidity Pressure Visibility Wind Dir Wind Speed Gust Speed Precip Events Conditions
12:53 AM 60.1 °F 57.0 °F 90% 30.05 in 10.0 mi Calm Calm - N/A   Mostly Cloudy
1:53 AM 57.9 °F 57.0 °F 97% 30.07 in 10.0 mi ENE 4.6 mph - N/A   Scattered Clouds
2:06 AM 59.0 °F 57.2 °F 94% 30.34 in 10.0 mi NE 4.6 mph - N/A   Mostly Cloudy
2:50 AM 59.0 °F 55.4 °F 88% 30.34 in 10.0 mi NNE 3.5 mph - N/A   Overcast
2:53 AM 59.0 °F 55.9 °F 90% 30.09 in 10.0 mi NE 3.5 mph - N/A   Overcast
3:53 AM 57.0 °F 55.0 °F 93% 30.12 in 10.0 mi Calm Calm - N/A   Clear
4:53 AM 55.9 °F 53.1 °F 90% 30.13 in 10.0 mi NNW 3.5 mph - N/A   Clear
5:36 AM 53.6 °F 53.6 °F 100% 30.35 in 10.0 mi Calm Calm - N/A   Partly Cloudy
5:53 AM 54.0 °F 53.1 °F 97% 30.16 in 7.0 mi Calm Calm - N/A   Scattered Clouds
6:01 AM 55.4 °F 53.6 °F 94% 30.36 in 5.0 mi Calm Calm - N/A   Mostly Cloudy
6:08 AM 55.4 °F 53.6 °F 94% 30.36 in 5.0 mi NNW 3.5 mph - N/A   Mostly Cloudy
6:53 AM 57.9 °F 55.0 °F 90% 30.17 in 10.0 mi Calm Calm - N/A   Overcast
7:16 AM 57.2 °F 55.4 °F 94% 30.37 in 10.0 mi ENE 3.5 mph - N/A   Overcast
7:53 AM 57.9 °F 55.0 °F 90% 30.18 in 10.0 mi ESE 3.5 mph - N/A   Overcast
8:41 AM 60.8 °F 57.2 °F 88% 30.38 in 10.0 mi Calm Calm - N/A   Overcast
8:53 AM 60.1 °F 55.9 °F 86% 30.17 in 10.0 mi Calm Calm - N/A   Overcast
9:40 AM 64.4 °F 55.4 °F 73% 30.36 in 10.0 mi SW 5.8 mph - N/A   Mostly Cloudy
9:53 AM 63.0 °F 55.0 °F 75% 30.15 in 10.0 mi Calm Calm - N/A   Scattered Clouds
10:53 AM 68.0 °F 57.0 °F 68% 30.12 in 10.0 mi South 8.1 mph - N/A   Scattered Clouds
11:53 AM 70.0 °F 53.1 °F 55% 30.09 in 10.0 mi WSW 5.8 mph - N/A   Scattered Clouds
12:53 PM 70.0 °F 51.1 °F 51% 30.09 in 10.0 mi Calm Calm - 0.00 in Rain Light Rain
1:53 PM 69.1 °F 54.0 °F 58% 30.11 in 10.0 mi East 25.3 mph 31.1 mph 0.00 in   Mostly Cloudy
2:53 PM 71.1 °F 52.0 °F 51% 30.11 in 10.0 mi East 11.5 mph - N/A   Clear
3:53 PM 73.0 °F 52.0 °F 48% 30.09 in 10.0 mi East 16.1 mph - N/A   Mostly Cloudy
4:53 PM 72.0 °F 51.1 °F 48% 30.10 in 10.0 mi Variable 5.8 mph - N/A   Partly Cloudy
5:53 PM 70.0 °F 52.0 °F 53% 30.11 in 10.0 mi East 6.9 mph - N/A   Scattered Clouds
6:53 PM 69.1 °F 51.1 °F 53% 30.09 in 10.0 mi ESE 3.5 mph - N/A   Clear
7:53 PM 64.9 °F 53.1 °F 65% 30.12 in 10.0 mi WSW 9.2 mph - N/A   Clear
8:53 PM 63.0 °F 52.0 °F 67% 30.14 in 10.0 mi WSW 9.2 mph - N/A   Mostly Cloudy
9:53 PM 62.1 °F 53.1 °F 72% 30.15 in 10.0 mi SSW 5.8 mph - N/A   Scattered Clouds
10:53 PM 63.0 °F 54.0 °F 72% 30.14 in 10.0 mi SW 5.8 mph - N/A   Overcast
11:53 PM 60.1 °F 55.0 °F 83% 30.16 in 10.0 mi SW 4.6 mph - N/A   Mostly Cloudy